Weather History for Melbourne Airport, VC

Change the Weather History Date:

Friday, December 27, 2013

  Actual Average Record
Temperature  
Mean Temperature 64 °F -  
Max Temperature 71 °F 77 °F 93 °F (2005)
Min Temperature 57 °F 55 °F 42 °F (1996)
Degree Days  
Heating Degree Days 1    
Growing Degree Days 14 (Base 50)    
Moisture  
Dew Point 53 °F    
Average Humidity 70    
Maximum Humidity 94    
Minimum Humidity 37    
Precipitation  
Precipitation 0.00 in 0.06 in - ()
Sea Level Pressure  
Sea Level Pressure 29.91 in    
Wind  
Wind Speed 10 mph ()    
Max Wind Speed 16 mph    
Max Gust Speed -    
Visibility 7.0 miles    
Events Rain    
Averages and records for this station are not official NWS values.
T = Trace of Precipitation, MM = Missing Value Source: Averaged Metar Reports

Daily Weather History Graph

Daily Weather History Graph

Search for Another Location

Airport:

Trip Planner

Search our weather history database for the weather conditions in past years. The results will help you decide how hot, cold, wet, or windy it might be!

Date:

Astronomy

Dec. 27, 2013 Rise Set
Actual Time 5:58 AM EST 8:44 PM EST
Civil Twilight 5:27 AM EST 9:15 PM EST
Nautical Twilight 4:48 AM EST 9:54 PM EST
Astronomical Twilight 4:04 AM EST 10:38 PM EST
Moon 1:35 AM EST (12/27) 2:59 PM EST (12/27)
Length of Visible Light 15h 48m
Length of Day
14h 45m
Waning Crescent, 35% of the Moon is Illuminated
Dec 27
Waning Crescent
Jan 1
New
Jan 8
First Quarter
Jan 16
Full
Jan 24
Last Quarter

Hourly Weather History & Observations

Time (EST) Temp. Dew Point Humidity Pressure Visibility Wind Dir Wind Speed Gust Speed Precip Events Conditions
12:00 AM 61 °F 54 °F 71% 29.95 in 11 mi South 12.7 mph - -   Haze
12:00 AM 60.8 °F 53.6 °F 77% 29.95 in 6.2 mi South 12.7 mph - N/A   Mostly Cloudy
12:06 AM 60.8 °F 53.6 °F 77% 29.95 in 6.2 mi South 12.7 mph - N/A   Overcast
12:30 AM 60.8 °F 53.6 °F 77% 29.95 in 6.2 mi South 10.4 mph - N/A   Mostly Cloudy
1:00 AM 60 °F 53 °F 72% 29.94 in - SSW 11.5 mph - -  
1:00 AM 60.8 °F 53.6 °F 77% 29.92 in 6.2 mi SSW 11.5 mph - N/A   Mostly Cloudy
1:30 AM 60.8 °F 53.6 °F 77% 29.92 in 6.2 mi South 6.9 mph - N/A   Mostly Cloudy
2:00 AM 60 °F 55 °F 78% 29.92 in - South 9.2 mph - -  
2:00 AM 59.0 °F 55.4 °F 88% 29.92 in 5.0 mi South 9.2 mph - N/A   Light Drizzle
2:30 AM 59.0 °F 55.4 °F 88% 29.92 in 5.6 mi SSW 6.9 mph - N/A   Light Drizzle
2:45 AM 59.0 °F 55.4 °F 88% 29.92 in 6.2 mi SW 8.1 mph - N/A   Overcast
3:00 AM 59 °F 55 °F 82% 29.91 in 9 mi SW 8.1 mph - -   Haze
3:00 AM 59.0 °F 55.4 °F 88% 29.92 in 6.2 mi SW 8.1 mph - N/A   Overcast
3:30 AM 59.0 °F 53.6 °F 82% 29.89 in 6.2 mi SW 9.2 mph - N/A   Overcast
3:43 AM 59.0 °F 53.6 °F 82% 29.89 in 6.2 mi SW 6.9 mph - N/A   Light Drizzle
4:00 AM 59 °F 54 °F 79% 29.89 in - SW 8.1 mph - -  
4:00 AM 59.0 °F 53.6 °F 82% 29.89 in 6.2 mi SW 8.1 mph - N/A   Overcast
4:30 AM 59.0 °F 53.6 °F 82% 29.89 in 6.2 mi SW 8.1 mph - N/A   Light Drizzle
5:00 AM 59 °F 54 °F 80% 29.89 in - SW 9.2 mph - -  
5:00 AM 59.0 °F 55.4 °F 88% 29.89 in 6.2 mi SW 9.2 mph - N/A   Light Drizzle
5:30 AM 59.0 °F 53.6 °F 82% 29.92 in 5.6 mi SW 9.2 mph - N/A   Light Drizzle
6:00 AM 58 °F 55 °F 85% 29.90 in 4 mi SW 6.9 mph - - Rain Light Drizzle
6:00 AM 57.2 °F 55.4 °F 94% 29.89 in 4.3 mi SW 6.9 mph - N/A   Light Drizzle
6:30 AM 57.2 °F 55.4 °F 94% 29.92 in 4.3 mi SW 8.1 mph - N/A   Light Drizzle
7:00 AM 57 °F 54 °F 88% 29.93 in - SW 8.1 mph - -  
7:00 AM 57.2 °F 55.4 °F 94% 29.92 in 6.2 mi SW 8.1 mph - N/A   Light Drizzle
7:30 AM 57.2 °F 53.6 °F 88% 29.95 in 6.2 mi SW 10.4 mph - N/A   Light Drizzle
8:00 AM 59 °F 54 °F 77% 29.95 in - SW 12.7 mph - -  
8:00 AM 59.0 °F 53.6 °F 82% 29.95 in 6.2 mi SW 12.7 mph - N/A   Mostly Cloudy
8:30 AM 60.8 °F 53.6 °F 77% 29.95 in 6.2 mi SW 11.5 mph - N/A   Mostly Cloudy
9:00 AM 61 °F 54 °F 70% 29.96 in 11 mi SW 10.4 mph - -   Overcast
9:00 AM 60.8 °F 53.6 °F 77% 29.95 in 6.2 mi SW 10.4 mph - N/A   Mostly Cloudy
9:30 AM 62.6 °F 53.6 °F 72% 29.98 in 6.2 mi SSW 12.7 mph - N/A   Mostly Cloudy
10:00 AM 63 °F 54 °F 63% 29.96 in - South 13.8 mph - -  
10:00 AM 62.6 °F 53.6 °F 72% 29.95 in 6.2 mi South 13.8 mph - N/A   Mostly Cloudy
10:30 AM 64.4 °F 53.6 °F 68% 29.95 in 6.2 mi SSE 13.8 mph - N/A   Mostly Cloudy
11:00 AM 68 °F 53 °F 48% 29.95 in - SSE 16.1 mph - -  
11:00 AM 68.0 °F 53.6 °F 60% 29.95 in 6.2 mi SSE 16.1 mph - N/A   Mostly Cloudy
11:30 AM 64.4 °F 51.8 °F 64% 29.95 in 6.2 mi South 15.0 mph - N/A   Scattered Clouds
12:00 PM 66 °F 51 °F 49% 29.93 in 16 mi SSE 15.0 mph - -   Haze
12:00 PM 66.2 °F 51.8 °F 60% 29.92 in 6.2 mi SSE 15.0 mph - N/A   Mostly Cloudy
12:30 PM 66.2 °F 50.0 °F 56% 29.92 in 6.2 mi SE 11.5 mph - N/A   Scattered Clouds
1:00 PM 71 °F 52 °F 41% 29.93 in - South 13.8 mph - -  
1:00 PM 71.6 °F 51.8 °F 50% 29.92 in 6.2 mi South 13.8 mph - N/A   Scattered Clouds
1:30 PM 68.0 °F 50.0 °F 52% 29.92 in 6.2 mi South 12.7 mph - N/A   Mostly Cloudy
2:00 PM 68 °F 50 °F 43% 29.92 in - SSE 13.8 mph - -  
2:00 PM 68.0 °F 50.0 °F 52% 29.92 in 6.2 mi SSE 13.8 mph - N/A   Mostly Cloudy
2:30 PM 69.8 °F 50.0 °F 49% 29.92 in 6.2 mi South 15.0 mph - N/A   Mostly Cloudy
3:00 PM 69 °F 50 °F 40% 29.90 in 19 mi South 9.2 mph - -   Partly Cloudy
3:00 PM 69.8 °F 50.0 °F 49% 29.89 in 6.2 mi South 9.2 mph - N/A   Mostly Cloudy
3:30 PM 68.0 °F 50.0 °F 52% 29.89 in 6.2 mi South 11.5 mph - N/A   Scattered Clouds
4:00 PM 70 °F 49 °F 37% 29.88 in - SSE 12.7 mph - -  
4:00 PM 69.8 °F 50.0 °F 49% 29.89 in 6.2 mi SSE 12.7 mph - N/A   Partly Cloudy
4:30 PM 69.8 °F 50.0 °F 49% 29.86 in 6.2 mi SSE 12.7 mph - N/A   Partly Cloudy
5:00 PM 69 °F 48 °F 37% 29.87 in - South 10.4 mph - -  
5:00 PM 69.8 °F 48.2 °F 46% 29.86 in 6.2 mi South 10.4 mph - N/A   Partly Cloudy
5:30 PM 68.0 °F 50.0 °F 52% 29.86 in 6.2 mi SSE 11.5 mph - N/A   Partly Cloudy
6:00 PM 69 °F 52 °F 44% 29.86 in 19 mi South 10.4 mph - -   Partly Cloudy
6:00 PM 69.8 °F 51.8 °F 53% 29.86 in 6.2 mi South 10.4 mph - N/A   Partly Cloudy
6:30 PM 68.0 °F 51.8 °F 56% 29.86 in 6.2 mi South 12.7 mph - N/A   Partly Cloudy
7:00 PM 67 °F 53 °F 50% 29.86 in - South 11.5 mph - -  
7:00 PM 66.2 °F 51.8 °F 60% 29.86 in 6.2 mi South 11.5 mph - N/A   Partly Cloudy
7:30 PM 66.2 °F 53.6 °F 64% 29.86 in 6.2 mi South 10.4 mph - N/A   Partly Cloudy
8:00 PM 64 °F 54 °F 62% 29.87 in - South 9.2 mph - -  
8:00 PM 64.4 °F 53.6 °F 68% 29.86 in 6.2 mi South 9.2 mph - N/A   Partly Cloudy
8:30 PM 62.6 °F 53.6 °F 72% 29.86 in 6.2 mi South 9.2 mph - N/A   Partly Cloudy
9:00 PM 61 °F 54 °F 73% 29.87 in 12 mi South 9.2 mph - -   Haze
9:00 PM 60.8 °F 55.4 °F 82% 29.86 in 6.2 mi South 9.2 mph - N/A   Partly Cloudy
9:30 PM 59.0 °F 55.4 °F 88% 29.86 in 6.2 mi South 5.8 mph - N/A   Partly Cloudy
10:00 PM 58 °F 54 °F 84% 29.87 in - South 5.8 mph - -  
10:00 PM 59.0 °F 55.4 °F 88% 29.86 in 6.2 mi South 5.8 mph - N/A   Partly Cloudy
10:30 PM 57.2 °F 55.4 °F 94% 29.86 in 6.2 mi SSW 5.8 mph - N/A   Partly Cloudy
11:00 PM 57 °F 54 °F 86% 29.87 in - SW 5.8 mph - -  
11:00 PM 57.2 °F 53.6 °F 88% 29.86 in 6.2 mi SW 5.8 mph - N/A   Scattered Clouds
11:30 PM 57.2 °F 55.4 °F 94% 29.86 in 6.2 mi SSW 3.5 mph - N/A   Partly Cloudy